Temperature
16 16 16 16 17 17 17 18 18 18 18 18 18 18 18 17 17 17 17 17 17 17 16 16 16 16 16 16 16 16 16 16 16 16 16 16 16 16 16 16 16 16 15
16 16 16 16 16 17 17 17 17 17 17 17 18 18 17 17 17 17 17 17 17 17 16 16 16 16 16 16 16 16 16 16 16 16 16 16 16 16 16 15 16 15 15
16 16 16 16 16 16 17 17 17 17 17 17 17 17 17 17 17 17 17 17 17 16 16 16 16 16 16 16 16 16 16 16 16 16 15 16 15 15 15 15 15 15 15
16 16 16 16 16 16 16 17 17 17 17 17 17 17 17 17 17 17 16 16 16 16 16 16 16 16 16 16 16 16 16 15 15 15 15 15 15 15 15 15 15 15 15
16 16 16 16 16 16 16 16 16 16 17 17 16 16 16 17 16 16 16 16 16 16 16 16 16 16 16 16 16 16 15 15 15 15 15 15 15 15 15 15 15 15 15
16 16 16 16 16 16 16 16 16 16 16 16 16 16 16 16 16 16 16 16 16 16 16 16 16 16 16 16 15 15 15 15 15 15 15 15 15 15 15 15 15 15 15
16 16 16 16 16 16 16 16 16 16 16 16 16 16 16 16 16 16 16 16 16 16 16 16 16 16 16 15 15 15 15 15 15 15 15 14 14 15 15 15 15 15 15
15 15 15 15 15 15 15 16 16 16 16 16 16 16 16 16 16 16 16 16 16 16 16 16 16 16 15 15 15 15 15 15 15 15 14 14 14 14 15 15 15 15 15
15 15 15 15 15 15 15 15 15 15 15 15 15 15 15 16 16 16 16 16 16 16 16 16 16 15 15 15 15 15 15 14 14 15 14 14 14 14 15 15 15 15 15
14 14 14 14 14 15 15 15 15 15 15 15 15 15 15 15 15 15 15 15 15 15 15 15 15 15 15 15 15 15 15 14 14 14 14 14 14 14 14 14 15 15 15
14 14 14 14 14 14 14 14 14 15 15 15 15 15 15 15 15 15 15 15 15 15 15 15 15 15 15 15 15 15 15 14 14 14 14 14 14 14 14 14 14 14 14
13 13 13 13 14 14 14 14 14 14 14 14 15 15 15 15 15 15 15 15 15 15 15 15 15 15 15 15 15 15 15 15 14 14 14 14 14 14 14 14 14 14 14
12 12 13 13 13 13 13 13 14 14 14 14 14 14 15 15 15 15 15 15 15 15 15 15 15 15 15 15 15 15 14 14 14 14 14 14 14 14 14 14 14 14 14
12 12 12 12 12 12 13 13 13 13 13 14 14 14 14 14 14 14 14 15 15 15 15 15 15 15 15 15 15 14 14 14 14 14 14 14 14 14 14 14 14 14 14
11 11 11 12 12 12 12 12 12 12 13 13 13 13 13 13 14 14 14 14 14 14 14 15 15 15 14 14 14 14 14 14 14 14 14 14 14 14 14 14 14 14 14
11 11 11 11 11 11 11 11 12 12 12 12 13 13 13 13 13 13 14 14 14 14 14 14 14 14 14 14 14 14 14 14 14 14 14 14 14 14 14 14 14 14 14
10 10 10 10 10 11 11 11 11 11 12 12 12 12 12 12 13 13 13 13 13 14 14 14 14 14 14 14 14 14 14 14 14 14 14 14 14 14 13 13 13 13 13
10 10 10 10 10 10 10 10 10 11 11 11 11 12 12 12 12 12 12 13 13 13 13 13 14 14 14 14 14 14 14 14 14 14 13 13 13 13 13 13 13 13 13
9 9 9 9 9 10 10 10 10 10 10 11 11 11 11 11 11 12 12 12 13 13 13 13 13 13 13 13 13 13 13 13 13 13 13 13 13 13 13 13 13 13 13
9 9 9 9 9 9 9 9 9 10 10 10 10 10 10 11 11 11 11 12 12 12 12 12 13 13 13 13 13 13 13 13 13 13 13 13 13 13 13 13 13 13 13
8 8 8 8 8 9 9 9 9 9 9 9 10 10 10 10 10 10 11 11 11 12 12 12 12 12 12 12 12 12 12 12 12 13 13 12 12 12 12 12 12 12 12
8 8 8 8 8 8 8 8 8 8 8 9 9 9 9 10 10 10 10 11 11 11 11 11 11 11 12 12 12 11 11 12 12 12 12 12 12 12 12 12 12 12 12
7 7 7 7 7 7 7 7 7 8 8 8 8 9 9 9 9 9 10 10 10 10 11 11 11 11 11 11 11 11 11 11 11 12 12 12 12 12 12 11 11 11 11
6 6 6 6 6 7 7 7 7 7 7 7 8 8 8 8 9 9 9 9 10 10 10 10 10 10 10 10 10 10 10 10 10 10 10 11 11 11 11 11 11 11 11
5 6 6 6 6 6 6 6 7 7 6 6 7 7 8 8 8 8 8 9 9 9 9 9 10 10 10 10 10 10 10 10 10 9 9 9 10 10 10 10 10 10 10
5 5 6 6 6 6 6 6 6 6 6 6 6 7 7 7 7 8 8 8 8 8 9 9 9 9 9 9 9 9 9 9 9 9 9 8 9 9 10 10 9 9 9
Wind_Speed
1 1 4 5 7 8 8 9 9 9 9 9 9 10 10 11 11 12 12 12 12 12 12 11 11 11 12 13 14 14 14 14 14 14 13 13 13 13 13 13 12 12 14
3 2 5 6 7 7 7 8 8 8 9 9 9 9 9 9 10 11 11 11 10 11 11 11 11 11 12 12 13 13 13 14 14 14 13 13 13 13 13 12 12 11 13
3 3 5 6 6 7 7 7 7 7 8 8 9 8 9 9 9 10 10 10 10 10 10 10 11 10 11 11 12 12 13 13 13 12 11 10 11 12 13 12 12 12 12
4 4 5 5 5 6 6 6 6 6 7 7 8 8 8 9 9 9 10 10 10 10 10 10 10 11 11 11 11 11 11 11 11 9 8 8 9 10 11 11 11 11 11
5 5 5 5 4 4 4 5 5 5 6 6 7 8 8 9 9 9 10 10 10 10 10 10 11 11 10 10 10 10 10 9 8 7 7 7 8 10 10 10 10 10 10
4 5 5 4 3 2 2 3 4 5 6 6 6 7 8 9 10 10 10 10 10 10 10 11 11 11 10 10 10 9 8 8 7 7 7 7 8 9 9 9 9 9 9
4 5 5 4 3 2 1 1 3 4 5 6 7 7 8 9 9 10 10 10 10 11 11 11 12 12 11 11 9 8 7 8 7 7 7 8 9 9 9 8 8 8 7
4 5 5 4 3 2 1 1 2 3 4 6 7 7 7 8 9 9 11 11 11 11 12 12 12 12 12 11 10 8 7 7 6 7 7 8 9 10 9 8 8 7 7
5 5 4 4 4 4 3 3 4 4 4 5 7 7 7 8 8 9 10 11 12 12 13 13 13 13 13 12 11 9 7 7 6 6 7 8 10 10 10 9 8 7 7
5 4 5 5 4 5 5 5 5 5 5 6 6 7 8 8 9 9 10 11 12 13 14 14 14 14 13 13 12 10 8 7 6 6 7 9 11 11 11 10 9 8 7
6 4 4 5 5 5 5 5 6 6 6 6 6 7 8 7 8 9 10 11 12 13 14 15 15 14 14 13 12 11 9 7 6 6 9 10 12 12 11 10 9 9 8
5 5 3 4 5 5 5 6 6 6 6 6 6 6 7 7 8 9 10 12 12 13 14 15 16 15 12 10 11 11 8 8 7 7 9 11 12 12 11 11 10 9 8
3 4 4 4 4 4 4 5 4 5 5 6 6 6 6 6 7 7 6 8 10 11 10 11 12 11 10 9 8 8 9 8 7 8 10 12 13 13 12 12 11 11 10
4 5 5 4 4 4 5 4 4 3 3 4 6 7 5 3 3 4 5 6 7 8 7 7 7 9 10 10 9 8 9 8 8 8 11 14 14 14 13 13 13 12 11
4 5 5 5 4 4 4 4 4 3 4 5 6 6 6 4 4 4 4 5 7 7 7 6 6 7 7 8 9 8 8 9 10 10 10 14 16 16 15 14 13 12 12
5 5 5 5 5 4 4 3 3 4 5 5 5 7 7 6 4 5 5 5 6 8 8 7 7 6 6 6 7 8 8 9 10 11 12 14 16 17 16 15 14 13 13
5 5 5 5 5 5 5 4 3 4 4 4 5 7 7 7 5 5 5 5 6 8 8 7 6 5 5 6 7 8 7 8 9 10 11 12 13 16 16 16 15 14 13
5 5 5 6 6 5 5 5 4 4 4 4 5 6 7 8 7 5 5 5 5 6 6 6 6 6 6 6 6 6 6 7 8 9 10 11 12 12 14 15 15 14 14
5 5 5 6 5 5 5 5 4 4 4 3 4 4 5 6 6 4 5 5 5 4 5 6 6 6 5 5 6 6 6 6 7 7 7 9 11 11 11 13 14 14 13
5 5 5 6 5 5 4 4 3 3 3 3 3 4 4 4 5 4 4 5 5 5 5 5 6 6 5 5 5 6 6 6 6 6 7 7 9 10 11 10 11 11 13
6 6 6 6 6 4 3 3 3 3 3 3 3 4 4 4 4 4 4 4 5 5 6 6 6 6 5 4 2 3 3 5 6 6 6 5 6 7 9 9 9 9 10
6 7 6 6 6 5 4 3 3 3 2 3 3 3 4 4 3 4 4 4 5 5 5 5 5 4 4 4 3 2 2 2 4 6 5 6 6 5 6 8 9 9 9
7 7 7 7 7 6 5 3 3 2 2 2 3 2 3 4 3 3 4 4 4 5 5 5 6 7 5 4 4 4 3 4 2 2 4 6 6 5 5 5 7 8 9
7 7 7 7 6 6 5 3 3 2 3 4 3 3 3 3 3 2 3 3 4 4 5 6 6 6 6 5 4 4 3 2 2 2 2 4 5 6 6 5 6 7 8
7 7 6 6 7 6 5 4 3 3 3 3 3 2 3 3 2 2 2 3 4 4 4 5 4 5 4 5 4 3 3 3 2 3 4 3 3 4 5 5 5 4 6
7 7 6 7 7 6 5 4 3 4 4 3 3 2 2 2 2 2 2 2 3 3 4 4 4 5 5 4 4 4 4 3 3 3 4 5 4 4 4 4 4 4 4
Wind_Direction
270 214 133 126 123 120 121 120 131 136 135 133 130 128 125 126 126 127 129 131 132 133 130 127 123 119 116 113 111 109 108 107 104 100 96 96 99 101 98 94 90 86 88
186 152 122 124 122 123 124 128 127 138 145 146 144 142 141 138 140 141 142 143 142 142 139 136 131 127 123 120 117 115 113 111 107 102 98 96 100 103 103 99 96 95 92
120 116 113 118 119 123 126 131 136 136 150 158 157 157 156 154 153 154 153 154 153 150 148 145 142 134 129 126 125 122 120 117 113 108 105 103 105 106 106 104 101 100 98
102 94 95 110 118 123 131 138 147 151 154 164 169 169 169 169 166 165 165 165 163 157 154 151 148 142 138 135 134 131 129 126 122 116 112 117 118 116 114 111 108 104 102
72 77 81 92 112 121 136 147 157 164 168 170 175 180 180 180 180 177 176 174 170 165 160 155 153 151 149 146 144 143 139 136 130 121 126 131 131 126 121 116 114 110 107
63 63 69 80 85 104 130 155 170 178 183 185 185 189 191 190 191 190 185 179 175 172 168 164 163 163 160 159 157 155 151 144 132 129 140 145 143 136 130 127 124 120 115
58 53 59 59 58 67 121 170 190 198 202 201 200 200 201 200 198 197 191 184 179 179 178 174 173 172 172 169 169 167 159 152 142 145 154 160 158 150 145 142 137 132 125
61 44 48 39 24 12 324 256 233 232 226 218 213 211 209 209 207 200 194 190 187 185 184 183 182 183 183 180 179 178 169 160 150 157 168 175 172 162 159 157 152 146 142
42 34 24 15 1 345 321 296 270 250 245 238 227 218 216 213 213 207 198 196 194 192 191 191 190 189 189 190 188 187 184 174 159 163 174 185 181 172 170 170 167 164 160
26 18 1 353 349 338 318 300 285 266 253 248 244 233 224 220 216 211 205 202 199 198 198 196 192 193 195 195 196 197 196 185 179 186 189 194 189 182 178 179 180 179 176
7 355 352 343 336 327 311 295 292 279 265 256 249 239 229 224 219 214 212 207 203 203 202 201 198 198 198 200 202 205 202 197 194 200 198 196 193 189 186 188 189 190 191
342 337 342 335 331 325 314 306 295 282 274 264 257 246 235 226 220 218 216 211 208 206 207 207 203 200 197 203 208 208 207 205 202 207 205 203 198 197 194 195 196 199 201
313 324 329 328 327 323 317 307 295 285 279 267 256 247 240 231 226 220 214 214 210 207 208 210 205 202 199 201 206 208 208 206 208 211 211 210 206 204 202 202 204 208 211
313 307 309 313 317 315 309 304 288 283 278 271 257 245 234 232 226 218 211 210 206 205 203 203 202 202 202 204 205 209 212 211 212 213 217 216 212 209 209 208 209 212 214
308 306 302 303 303 306 305 297 296 279 273 261 256 247 233 226 227 224 217 211 210 205 200 201 205 205 205 207 210 211 217 217 215 213 216 217 215 214 213 213 214 216 217
304 303 302 299 296 299 288 284 283 285 280 266 255 250 240 231 230 225 221 216 214 209 205 202 204 208 212 211 215 215 218 220 219 215 215 216 217 215 214 216 218 219 220
300 302 302 299 302 296 286 279 289 291 289 275 266 255 248 237 229 229 224 219 219 213 207 204 205 208 216 217 220 219 219 221 220 219 217 215 215 217 216 217 218 220 223
312 310 308 315 315 302 289 283 286 288 281 277 276 267 256 245 232 223 227 224 222 215 208 206 205 207 215 220 223 224 221 220 220 218 215 214 212 214 216 216 218 220 222
315 313 314 313 309 305 295 289 284 281 271 280 286 281 270 260 244 228 230 232 221 215 211 213 208 205 212 221 227 224 221 217 218 215 212 210 211 211 211 214 217 220 222
329 326 323 320 314 310 306 303 294 287 281 286 291 289 281 275 260 244 239 239 224 215 215 212 210 209 211 215 228 232 228 222 217 212 212 208 208 210 211 213 214 220 221
348 347 341 335 327 327 324 318 305 293 291 288 282 291 290 287 273 250 248 241 229 220 218 214 208 208 213 202 204 246 248 231 220 214 209 205 207 209 209 212 213 215 224
349 345 340 335 329 325 313 299 282 278 272 266 269 292 304 296 284 260 247 241 234 228 221 220 211 209 213 195 184 184 245 251 232 222 212 207 210 209 213 220 217 216 221
345 337 333 328 325 321 317 311 313 305 306 297 300 299 299 300 290 276 264 247 241 229 221 218 215 205 212 211 193 184 194 223 239 235 219 214 211 212 218 217 217 219 222
330 325 323 323 323 320 321 321 317 311 292 283 285 283 291 302 306 302 282 264 251 242 228 221 221 218 203 213 215 209 213 197 198 235 234 219 220 222 221 224 220 221 221
326 325 324 324 323 323 324 317 306 294 276 279 286 293 303 313 311 307 285 264 257 252 238 224 223 227 216 214 215 213 223 223 212 216 241 237 245 232 225 220 217 217 223
330 331 332 334 332 329 330 324 320 303 296 297 298 294 300 296 290 287 276 256 256 256 247 234 222 223 223 217 215 210 207 200 207 217 229 233 242 244 238 222 215 212 222
Height
1526 1526 1526 1527 1528 1528 1529 1530 1531 1532 1533 1534 1534 1535 1536 1537 1537 1538 1538 1538 1539 1539 1540 1540 1540 1541 1541 1542 1542 1542 1543 1543 1543 1543 1543 1544 1544 1544 1543 1543 1543 1543 1543
1526 1526 1526 1527 1528 1529 1529 1530 1531 1532 1533 1534 1534 1535 1536 1537 1537 1538 1538 1539 1539 1540 1540 1540 1541 1541 1542 1542 1543 1543 1543 1544 1544 1544 1544 1545 1545 1545 1545 1545 1544 1544 1544
1525 1525 1526 1527 1528 1528 1529 1530 1531 1532 1533 1533 1534 1535 1536 1536 1537 1538 1538 1539 1539 1540 1540 1541 1541 1542 1542 1543 1543 1544 1544 1544 1545 1545 1545 1545 1546 1546 1546 1546 1546 1545 1545
1525 1525 1526 1527 1528 1528 1529 1530 1530 1531 1532 1533 1534 1535 1535 1536 1537 1537 1538 1539 1539 1540 1540 1541 1541 1542 1543 1543 1544 1544 1545 1545 1545 1545 1546 1546 1546 1547 1547 1547 1547 1546 1546
1525 1525 1526 1527 1527 1528 1529 1529 1530 1530 1531 1532 1533 1534 1535 1535 1536 1537 1538 1538 1539 1540 1540 1541 1542 1542 1543 1544 1544 1544 1545 1545 1546 1546 1546 1547 1547 1547 1548 1547 1547 1547 1547
1525 1525 1526 1526 1527 1527 1528 1528 1529 1530 1530 1531 1532 1533 1534 1534 1535 1536 1537 1538 1538 1539 1540 1541 1541 1542 1543 1543 1544 1545 1545 1545 1546 1546 1547 1547 1548 1548 1548 1548 1548 1548 1548
1524 1525 1525 1525 1526 1526 1527 1527 1528 1528 1529 1530 1531 1531 1532 1533 1534 1535 1536 1537 1537 1538 1539 1540 1541 1542 1542 1543 1544 1544 1545 1545 1546 1546 1547 1547 1548 1548 1548 1548 1549 1549 1548
1523 1523 1524 1524 1524 1525 1525 1526 1526 1527 1527 1528 1529 1530 1531 1531 1532 1533 1534 1535 1536 1537 1538 1539 1540 1541 1542 1542 1543 1544 1544 1545 1545 1546 1547 1547 1548 1548 1548 1548 1549 1549 1549
1522 1522 1522 1522 1523 1523 1523 1524 1524 1525 1525 1526 1527 1528 1529 1529 1530 1531 1532 1533 1534 1535 1537 1538 1539 1540 1541 1541 1542 1543 1544 1544 1545 1545 1546 1547 1547 1548 1548 1548 1548 1548 1548
1520 1520 1520 1520 1520 1520 1521 1521 1521 1522 1523 1523 1524 1525 1526 1527 1528 1529 1530 1531 1532 1534 1535 1536 1537 1538 1539 1540 1541 1542 1543 1543 1544 1544 1545 1546 1546 1547 1547 1548 1548 1548 1548
1519 1518 1518 1518 1518 1518 1518 1518 1519 1519 1520 1521 1521 1522 1523 1524 1525 1526 1527 1529 1530 1531 1532 1534 1535 1536 1537 1538 1539 1540 1541 1542 1542 1543 1544 1544 1545 1546 1546 1547 1547 1547 1547
1516 1516 1515 1515 1514 1514 1514 1515 1515 1516 1516 1517 1518 1519 1520 1521 1522 1523 1524 1526 1527 1528 1530 1531 1532 1534 1535 1536 1537 1538 1539 1540 1540 1541 1542 1543 1544 1544 1545 1545 1545 1546 1546
1513 1513 1512 1511 1511 1511 1510 1511 1511 1512 1512 1513 1514 1515 1516 1517 1518 1519 1520 1522 1523 1525 1526 1528 1529 1530 1532 1533 1534 1535 1536 1537 1538 1539 1540 1541 1541 1542 1543 1543 1543 1544 1544
1510 1509 1509 1508 1507 1507 1507 1506 1507 1507 1508 1508 1510 1511 1512 1513 1514 1515 1516 1518 1519 1521 1522 1524 1525 1527 1528 1530 1531 1532 1533 1534 1535 1536 1537 1538 1539 1539 1540 1540 1541 1541 1541
1507 1506 1505 1504 1503 1503 1502 1502 1502 1502 1503 1503 1504 1506 1507 1508 1509 1510 1512 1514 1515 1517 1518 1520 1522 1523 1525 1526 1527 1528 1529 1531 1532 1533 1534 1535 1536 1536 1537 1537 1538 1538 1538
1503 1502 1501 1500 1499 1498 1498 1497 1497 1498 1498 1498 1499 1500 1502 1503 1504 1506 1507 1509 1510 1512 1514 1516 1517 1519 1520 1522 1523 1524 1525 1527 1528 1529 1530 1531 1532 1533 1534 1534 1534 1535 1535
1500 1498 1497 1496 1495 1494 1493 1493 1493 1493 1493 1493 1494 1495 1497 1498 1500 1501 1502 1504 1505 1507 1509 1511 1513 1515 1516 1517 1519 1520 1521 1522 1523 1524 1526 1527 1528 1529 1530 1530 1531 1531 1532
1497 1495 1493 1492 1491 1490 1489 1488 1488 1488 1488 1488 1489 1490 1491 1493 1494 1496 1497 1498 1501 1502 1504 1506 1508 1509 1511 1512 1514 1515 1516 1518 1519 1520 1521 1522 1523 1524 1525 1526 1527 1527 1528
1493 1492 1490 1488 1486 1485 1484 1483 1483 1483 1483 1483 1484 1484 1486 1487 1489 1490 1492 1493 1495 1497 1499 1501 1502 1504 1506 1507 1509 1510 1511 1512 1514 1515 1516 1517 1518 1520 1521 1522 1522 1523 1523
1490 1488 1486 1484 1482 1481 1480 1479 1478 1478 1478 1478 1478 1480 1481 1482 1484 1485 1487 1488 1490 1491 1493 1495 1496 1498 1500 1502 1504 1505 1506 1507 1509 1510 1511 1512 1513 1514 1516 1516 1517 1518 1518
1487 1485 1483 1481 1479 1477 1476 1474 1473 1472 1472 1473 1474 1475 1476 1477 1478 1480 1481 1483 1484 1485 1487 1489 1491 1493 1495 1497 1499 1500 1501 1502 1503 1504 1505 1507 1508 1509 1510 1511 1512 1512 1513
1484 1481 1479 1477 1475 1473 1472 1470 1469 1468 1468 1468 1469 1470 1471 1472 1473 1474 1476 1477 1479 1480 1481 1483 1485 1486 1489 1492 1493 1494 1495 1496 1496 1498 1499 1501 1502 1503 1504 1505 1506 1507 1507
1481 1479 1476 1474 1472 1470 1468 1466 1465 1464 1464 1464 1464 1464 1466 1467 1468 1469 1470 1472 1473 1475 1476 1477 1480 1481 1483 1485 1487 1489 1490 1489 1490 1491 1493 1495 1496 1497 1498 1499 1500 1500 1501
1479 1476 1473 1471 1469 1466 1464 1462 1461 1460 1459 1459 1459 1460 1461 1462 1463 1464 1465 1466 1468 1469 1470 1472 1474 1476 1477 1479 1481 1483 1484 1484 1485 1485 1487 1488 1490 1491 1492 1493 1493 1494 1495
1477 1474 1471 1468 1465 1463 1461 1459 1457 1456 1456 1455 1455 1456 1456 1457 1458 1459 1460 1461 1463 1464 1465 1467 1468 1470 1471 1473 1475 1476 1478 1479 1479 1480 1480 1482 1483 1485 1486 1486 1487 1488 1488
1475 1472 1468 1465 1463 1460 1458 1456 1454 1452 1452 1451 1451 1451 1451 1452 1453 1454 1455 1456 1457 1459 1459 1461 1462 1464 1465 1467 1469 1470 1471 1472 1473 1474 1475 1476 1476 1478 1479 1480 1481 1481 1482